Date String (YYYY-MM-DD hh:mm:ss) UTC,Instrument flags,Ambient pressure (hPa),Sample flow (lpm),Bypass flow (lpm),Sample temperature (°C),Ambient temperature (°C),ASC tube jacket temperature (°C),LED temperature (°C),Box temperature (°C),Sample RH (%),Span deviation,Mass concentration (μg/m³),Mass concentration (μg/m³),Mass concentration (μg/m³)
DateTimeUTC,F1_M11,P_M11,Q1_M11,Q2_M11,T1_M11,T2_M11,T3_M11,T4_M11,T5_M11,U1_M11,ZSPAN_M11,X0_M11,X2_M11,X1_M11
2022-05-19 02:00:00,,0822.5,5.00,0.00,29.3,28.1,00.0,38.2,31.3,09.9,0000.0,0008.68,0003.50,0001.99
2022-05-19 02:01:00,,0822.5,4.99,0.00,29.4,28.3,00.0,38.2,31.3,10.7,0000.0,0008.38,0003.51,0001.99
2022-05-19 02:02:00,,0822.6,4.99,0.00,29.4,28.4,00.0,38.2,31.4,10.3,0000.0,0008.28,0003.54,0001.98
2022-05-19 02:03:00,,0822.6,5.00,0.00,29.5,28.5,00.0,38.2,31.4,09.8,0000.0,0008.27,0003.53,0001.97
2022-05-19 02:04:00,,0822.6,5.01,0.00,29.5,28.7,00.0,38.3,31.5,09.8,0000.0,0008.48,0003.48,0001.93
2022-05-19 02:05:00,,0822.6,5.00,0.00,29.6,28.8,00.0,38.3,31.5,10.1,0000.0,0008.56,0003.45,0001.91
2022-05-19 02:06:00,,0822.6,5.00,0.00,29.6,28.4,00.0,38.3,31.5,10.4,0000.0,0008.58,0003.49,0001.91
2022-05-19 02:07:00,,0822.6,5.00,0.00,29.5,27.4,00.0,38.2,31.2,10.4,0000.0,0008.77,0003.50,0001.89
2022-05-19 02:08:00,,0822.6,5.00,0.00,29.4,26.8,00.0,38.1,31.0,10.6,0000.0,0008.80,0003.52,0001.91
2022-05-19 02:09:00,,0822.5,5.01,0.00,29.3,26.8,00.0,38.1,30.9,10.6,0000.0,0008.64,0003.53,0001.94
2022-05-19 02:10:00,,0822.6,5.01,0.00,29.3,26.9,00.0,38.1,30.9,10.6,0000.0,0008.61,0003.58,0001.98
2022-05-19 02:11:00,,0822.6,4.99,0.00,29.2,27.1,00.0,38.1,30.9,10.7,0000.0,0008.72,0003.64,0002.00
2022-05-19 02:12:00,,0822.6,5.00,0.00,29.2,27.3,00.0,38.1,31.0,10.8,0000.0,0008.66,0003.61,0002.01
2022-05-19 02:13:00,,0822.6,5.01,0.00,29.2,27.5,00.0,38.1,31.1,10.8,0000.0,0008.59,0003.61,0002.02
2022-05-19 02:14:00,,0822.6,5.00,0.00,29.2,27.7,00.0,38.1,31.1,10.8,0000.0,0008.71,0003.65,0002.07
2022-05-19 02:15:00,,0822.6,5.00,0.00,29.3,27.9,00.0,38.1,31.2,10.9,0000.0,0008.47,0003.69,0002.13
2022-05-19 02:16:00,,0822.7,4.99,0.00,29.3,28.1,00.0,38.1,31.2,10.9,0000.0,0008.39,0003.70,0002.15
2022-05-19 02:17:00,,0822.8,5.00,0.00,29.3,28.2,00.0,38.1,31.3,10.7,0000.0,0008.29,0003.66,0002.16
2022-05-19 02:18:00,,0822.8,5.01,0.00,29.4,28.3,00.0,38.2,31.3,10.5,0000.0,0008.52,0003.66,0002.15
2022-05-19 02:19:00,,0822.8,5.00,0.00,29.4,28.5,00.0,38.2,31.4,10.4,0000.0,0009.49,0003.68,0002.15
2022-05-19 02:20:00,,0822.9,5.00,0.00,29.4,28.6,00.0,38.2,31.4,09.8,0000.0,0009.43,0003.67,0002.15
2022-05-19 02:21:00,,0823.0,5.01,0.00,29.5,28.6,00.0,38.2,31.5,09.1,0000.0,0009.37,0003.64,0002.15
2022-05-19 02:22:00,,0823.0,5.00,0.00,29.5,28.7,00.0,38.3,31.5,09.0,0000.0,0009.38,0003.60,0002.12
2022-05-19 02:23:00,,0823.0,4.99,0.00,29.6,28.7,00.0,38.3,31.5,09.0,0000.0,0009.31,0003.58,0002.11
2022-05-19 02:24:00,,0822.9,5.01,0.00,29.5,28.0,00.0,38.2,31.3,09.0,0000.0,0009.18,0003.51,0002.09
2022-05-19 02:25:00,,0822.9,5.00,0.00,29.4,27.0,00.0,38.2,31.0,10.3,0000.0,0009.00,0003.45,0002.05
2022-05-19 02:26:00,,0822.8,4.99,0.00,29.3,26.7,00.0,38.1,30.9,14.1,0000.0,0009.44,0003.55,0002.10
2022-05-19 02:27:00,,0822.8,5.00,0.00,29.3,26.7,00.0,38.1,30.9,13.7,0000.0,0010.00,0003.64,0002.18
2022-05-19 02:28:00,,0822.8,5.00,0.00,29.2,26.9,00.0,38.1,30.9,13.6,0000.0,0010.53,0003.70,0002.25
2022-05-19 02:29:00,,0822.9,5.01,0.00,29.2,27.1,00.0,38.1,31.0,13.8,0000.0,0010.83,0003.75,0002.33
2022-05-19 02:30:00,,0822.9,5.00,0.00,29.2,27.3,00.0,38.1,31.0,13.5,0000.0,0011.10,0003.81,0002.39
2022-05-19 02:31:00,,0822.9,4.99,0.00,29.2,27.5,00.0,38.1,31.1,14.8,0000.0,0012.81,0003.94,0002.46
2022-05-19 02:32:00,,0823.0,5.00,0.00,29.2,27.7,00.0,38.1,31.1,15.7,0000.0,0014.24,0004.01,0002.54
2022-05-19 02:33:00,,0822.9,5.01,0.00,29.3,27.9,00.0,38.1,31.2,16.2,0000.0,0015.34,0004.15,0002.65
2022-05-19 02:34:00,,0822.9,5.00,0.00,29.3,28.0,00.0,38.1,31.2,16.4,0000.0,0016.13,0004.31,0002.77
2022-05-19 02:35:00,,0823.0,5.00,0.00,29.3,28.2,00.0,38.1,31.3,16.3,0000.0,0016.55,0004.47,0002.89
2022-05-19 02:36:00,,0822.9,4.99,0.00,29.4,28.3,00.0,38.2,31.3,16.2,0000.0,0017.81,0004.64,0003.01
2022-05-19 02:37:00,,0823.0,5.01,0.00,29.4,28.4,00.0,38.2,31.3,16.1,0000.0,0018.74,0004.71,0003.06
2022-05-19 02:38:00,,0823.1,5.01,0.00,29.4,28.5,00.0,38.2,31.4,15.9,0000.0,0019.24,0004.74,0003.07
2022-05-19 02:39:00,,0823.1,5.00,0.00,29.5,28.6,00.0,38.2,31.4,15.8,0000.0,0018.93,0004.76,0003.09
2022-05-19 02:40:00,,0823.1,4.98,0.00,29.5,28.7,00.0,38.3,31.5,15.9,0000.0,0019.47,0004.84,0003.12
2022-05-19 02:41:00,,0823.1,5.00,0.00,29.5,28.7,00.0,38.3,31.5,16.2,0000.0,0020.05,0004.91,0003.16
2022-05-19 02:42:00,,0823.1,5.01,0.00,29.6,28.6,00.0,38.3,31.5,16.2,0000.0,0019.46,0004.94,0003.18
2022-05-19 02:43:00,,0823.1,5.00,0.00,29.5,27.8,00.0,38.2,31.3,16.2,0000.0,0019.70,0004.99,0003.18
2022-05-19 02:44:00,,0823.1,5.00,0.00,29.5,27.4,00.0,38.2,31.2,16.2,0000.0,0019.90,0004.96,0003.19
2022-05-19 02:45:00,,0823.1,5.01,0.00,29.4,27.3,00.0,38.2,31.1,16.4,0000.0,0020.42,0004.93,0003.19
2022-05-19 02:46:00,,0823.1,5.00,0.00,29.4,27.4,00.0,38.2,31.1,16.8,0000.0,0021.08,0004.97,0003.19
2022-05-19 02:47:00,,0823.1,5.00,0.00,29.4,27.6,00.0,38.2,31.1,17.2,0000.0,0020.53,0004.91,0003.20
2022-05-19 02:48:00,,0823.1,5.01,0.00,29.4,27.7,00.0,38.2,31.2,17.0,0000.0,0019.93,0004.86,0003.21
2022-05-19 02:49:00,,0823.1,5.00,0.00,29.4,27.9,00.0,38.2,31.2,17.0,0000.0,0020.51,0004.88,0003.22
2022-05-19 02:50:00,,0823.1,4.99,0.00,29.4,28.1,00.0,38.2,31.3,17.3,0000.0,0021.50,0004.92,0003.23
2022-05-19 02:51:00,,0823.2,5.00,0.00,29.4,28.2,00.0,38.2,31.3,17.2,0000.0,0020.89,0004.95,0003.24
2022-05-19 02:52:00,,0823.2,5.00,0.00,29.5,28.3,00.0,38.3,31.4,17.4,0000.0,0019.49,0004.94,0003.23
2022-05-19 02:53:00,,0823.2,4.99,0.00,29.5,28.4,00.0,38.3,31.4,17.5,0000.0,0019.87,0004.95,0003.24
2022-05-19 02:54:00,,0823.2,5.00,0.00,29.5,28.5,00.0,38.3,31.5,17.6,0000.0,0019.11,0005.03,0003.26
2022-05-19 02:55:00,,0823.2,5.00,0.00,29.6,28.6,00.0,38.3,31.5,17.6,0000.0,0018.81,0005.06,0003.27
2022-05-19 02:56:00,,0823.3,5.00,0.00,29.6,28.7,00.0,38.3,31.5,18.0,0000.0,0018.22,0005.09,0003.29
2022-05-19 02:57:00,,0823.2,4.99,0.00,29.6,28.8,00.0,38.4,31.6,17.9,0000.0,0018.22,0005.10,0003.30
2022-05-19 02:58:00,,0823.2,5.00,0.00,29.6,28.2,00.0,38.3,31.4,17.8,0000.0,0018.01,0005.13,0003.30
2022-05-19 02:59:00,,0823.2,5.01,0.00,29.5,27.2,00.0,38.3,31.1,17.9,0000.0,0018.47,0005.17,0003.30
